Date String (YYYY-MM-DD hh:mm:ss) UTC,Instrument flags,Ambient pressure (hPa),Sample flow (lpm),Bypass flow (lpm),Sample temperature (°C),Ambient temperature (°C),ASC tube jacket temperature (°C),LED temperature (°C),Box temperature (°C),Sample RH (%),Span deviation,Mass concentration (μg/m³),Mass concentration (μg/m³),Mass concentration (μg/m³)
DateTimeUTC,F1_M11,P_M11,Q1_M11,Q2_M11,T1_M11,T2_M11,T3_M11,T4_M11,T5_M11,U1_M11,ZSPAN_M11,X0_M11,X2_M11,X1_M11
2021-09-21 11:00:00,,0839.0,5.00,0.00,28.2,27.3,00.0,37.2,29.9,19.6,0000.0,0007.59,0002.89,0002.46
2021-09-21 11:01:00,,0839.0,5.01,0.00,28.2,27.3,00.0,37.2,30.0,19.5,0000.0,0007.55,0002.89,0002.47
2021-09-21 11:02:00,,0839.0,5.00,0.00,28.2,27.2,00.0,37.2,30.0,19.4,0000.0,0007.44,0002.86,0002.47
2021-09-21 11:03:00,,0839.0,4.99,0.00,28.2,27.3,00.0,37.3,30.0,19.4,0000.0,0006.16,0002.85,0002.49
2021-09-21 11:04:00,,0839.0,4.99,0.00,28.2,27.3,00.0,37.2,30.0,19.4,0000.0,0006.02,0002.87,0002.50
2021-09-21 11:05:00,,0839.0,5.00,0.00,28.2,27.3,00.0,37.2,30.0,19.4,0000.0,0006.07,0002.87,0002.51
2021-09-21 11:06:00,,0839.0,5.00,0.00,28.2,27.3,00.0,37.3,30.0,19.4,0000.0,0006.05,0002.86,0002.51
2021-09-21 11:07:00,,0839.0,4.99,0.00,28.2,27.3,00.0,37.3,30.0,19.4,0000.0,0006.08,0002.85,0002.52
2021-09-21 11:08:00,,0839.1,5.01,0.00,28.2,27.3,00.0,37.3,30.0,19.4,0000.0,0005.59,0002.86,0002.53
2021-09-21 11:09:00,,0839.1,4.99,0.00,28.2,27.3,00.0,37.3,30.0,19.4,0000.0,0004.46,0002.88,0002.54
2021-09-21 11:10:00,,0839.0,5.01,0.00,28.2,27.3,00.0,37.3,30.0,19.5,0000.0,0004.01,0002.90,0002.55
2021-09-21 11:11:00,,0839.0,4.99,0.00,28.2,27.3,00.0,37.3,30.0,19.5,0000.0,0003.99,0002.89,0002.55
2021-09-21 11:12:00,,0839.0,4.99,0.00,28.2,27.2,00.0,37.3,30.0,19.5,0000.0,0004.21,0002.93,0002.55
2021-09-21 11:13:00,,0839.0,4.99,0.00,28.2,27.2,00.0,37.3,30.0,19.5,0000.0,0004.22,0002.94,0002.53
2021-09-21 11:14:00,,0839.0,5.01,0.00,28.2,27.2,00.0,37.3,30.0,19.5,0000.0,0004.09,0002.89,0002.51
2021-09-21 11:15:00,,0839.0,5.02,0.00,28.2,27.2,00.0,37.3,30.0,19.5,0000.0,0004.10,0002.88,0002.50
2021-09-21 11:16:00,,0839.1,5.00,0.00,28.2,27.2,00.0,37.3,30.0,19.5,0000.0,0004.08,0002.88,0002.49
2021-09-21 11:17:00,,0839.1,4.99,0.00,28.2,27.2,00.0,37.3,30.0,19.5,0000.0,0004.18,0002.91,0002.50
2021-09-21 11:18:00,,0839.1,5.00,0.00,28.2,27.2,00.0,37.3,30.0,19.5,0000.0,0004.18,0002.94,0002.50
2021-09-21 11:19:00,,0839.1,5.00,0.00,28.2,27.2,00.0,37.3,29.9,19.6,0000.0,0004.17,0002.95,0002.52
2021-09-21 11:20:00,,0839.1,4.99,0.00,28.2,27.2,00.0,37.3,30.0,19.6,0000.0,0004.15,0002.95,0002.53
2021-09-21 11:21:00,,0839.1,5.00,0.00,28.2,27.2,00.0,37.3,30.0,19.6,0000.0,0004.17,0002.97,0002.55
2021-09-21 11:22:00,,0839.1,5.00,0.00,28.2,27.2,00.0,37.3,29.9,19.6,0000.0,0004.24,0003.03,0002.59
2021-09-21 11:23:00,,0839.2,5.00,0.00,28.2,27.2,00.0,37.3,30.0,19.9,0000.0,0004.04,0003.02,0002.61
2021-09-21 11:24:00,,0839.2,4.99,0.00,28.2,27.2,00.0,37.3,29.9,21.0,0000.0,0004.03,0003.03,0002.63
2021-09-21 11:25:00,,0839.1,4.99,0.00,28.2,27.2,00.0,37.3,30.0,20.4,0000.0,0004.17,0003.07,0002.64
2021-09-21 11:26:00,,0839.1,5.01,0.00,28.2,27.2,00.0,37.3,30.0,19.9,0000.0,0004.48,0003.09,0002.67
2021-09-21 11:27:00,,0839.2,5.00,0.00,28.2,27.2,00.0,37.3,30.0,19.9,0000.0,0004.38,0003.08,0002.68
2021-09-21 11:28:00,,0839.2,5.00,0.00,28.2,27.2,00.0,37.3,29.9,19.8,0000.0,0004.30,0003.06,0002.69
2021-09-21 11:29:00,,0839.3,4.99,0.00,28.2,27.2,00.0,37.3,30.0,19.8,0000.0,0004.29,0003.05,0002.70
2021-09-21 11:30:00,,0839.3,4.99,0.00,28.2,27.2,00.0,37.3,29.9,19.8,0000.0,0004.43,0003.05,0002.70
2021-09-21 11:31:00,,0839.3,4.99,0.00,28.2,27.2,00.0,37.3,29.9,19.8,0000.0,0004.44,0003.05,0002.69
2021-09-21 11:32:00,,0839.3,5.01,0.00,28.2,27.2,00.0,37.3,29.9,19.9,0000.0,0004.42,0003.05,0002.70
2021-09-21 11:33:00,,0839.3,4.99,0.00,28.2,27.2,00.0,37.3,29.9,19.9,0000.0,0004.44,0003.07,0002.71
2021-09-21 11:34:00,,0839.3,5.00,0.00,28.2,27.2,00.0,37.3,30.0,20.0,0000.0,0004.48,0003.09,0002.73
2021-09-21 11:35:00,,0839.3,5.02,0.00,28.2,27.2,00.0,37.3,30.0,19.9,0000.0,0004.48,0003.07,0002.73
2021-09-21 11:36:00,,0839.3,5.00,0.00,28.2,27.2,00.0,37.3,30.0,19.9,0000.0,0004.48,0003.03,0002.72
2021-09-21 11:37:00,,0839.3,4.99,0.00,28.2,27.2,00.0,37.3,29.9,19.9,0000.0,0004.50,0003.01,0002.69
2021-09-21 11:38:00,,0839.3,5.01,0.00,28.2,27.2,00.0,37.3,29.9,20.0,0000.0,0004.62,0003.05,0002.72
2021-09-21 11:39:00,,0839.3,5.00,0.00,28.1,27.2,00.0,37.3,29.9,20.1,0000.0,0004.72,0003.10,0002.75
2021-09-21 11:40:00,,0839.3,4.99,0.00,28.1,27.2,00.0,37.3,29.9,20.2,0000.0,0006.18,0003.19,0002.81
2021-09-21 11:41:00,,0839.3,4.99,0.00,28.2,27.2,00.0,37.3,29.9,20.4,0000.0,0006.88,0003.29,0002.88
2021-09-21 11:42:00,,0839.3,5.00,0.00,28.1,27.2,00.0,37.3,30.0,20.4,0000.0,0007.36,0003.42,0002.98
2021-09-21 11:43:00,,0839.3,5.01,0.00,28.2,27.2,00.0,37.3,29.9,20.3,0000.0,0007.62,0003.48,0003.02
2021-09-21 11:44:00,,0839.4,4.99,0.00,28.1,27.2,00.0,37.3,29.9,20.3,0000.0,0008.21,0003.53,0003.05
2021-09-21 11:45:00,,0839.4,4.99,0.00,28.1,27.2,00.0,37.3,29.9,20.4,0000.0,0008.35,0003.59,0003.08
2021-09-21 11:46:00,,0839.4,5.01,0.00,28.1,27.2,00.0,37.3,29.9,20.3,0000.0,0008.44,0003.65,0003.12
2021-09-21 11:47:00,,0839.5,5.00,0.00,28.1,27.1,00.0,37.3,29.9,20.4,0000.0,0009.10,0003.73,0003.17
2021-09-21 11:48:00,,0839.4,4.99,0.00,28.1,27.2,00.0,37.3,29.9,20.5,0000.0,0009.86,0003.86,0003.23
2021-09-21 11:49:00,,0839.4,5.00,0.00,28.1,27.2,00.0,37.3,29.9,20.6,0000.0,0010.41,0003.96,0003.27
2021-09-21 11:50:00,,0839.5,5.00,0.00,28.1,27.1,00.0,37.3,29.9,20.6,0000.0,0011.23,0004.15,0003.31
2021-09-21 11:51:00,,0839.5,4.99,0.00,28.1,27.2,00.0,37.3,29.9,20.6,0000.0,0010.85,0004.21,0003.33
2021-09-21 11:52:00,,0839.5,4.99,0.00,28.1,27.2,00.0,37.3,29.9,20.6,0000.0,0011.08,0004.25,0003.36
2021-09-21 11:53:00,,0839.6,5.01,0.00,28.1,27.2,00.0,37.3,29.9,20.6,0000.0,0011.50,0004.25,0003.36
2021-09-21 11:54:00,,0839.6,5.00,0.00,28.1,27.2,00.0,37.3,29.9,20.6,0000.0,0011.56,0004.30,0003.40
2021-09-21 11:55:00,,0839.6,5.00,0.00,28.1,27.2,00.0,37.3,29.9,20.6,0000.0,0011.26,0004.38,0003.43
2021-09-21 11:56:00,,0839.6,5.00,0.00,28.1,27.2,00.0,37.3,29.9,20.6,0000.0,0011.28,0004.41,0003.46
2021-09-21 11:57:00,,0839.7,4.99,0.00,28.1,27.2,00.0,37.3,29.9,20.6,0000.0,0011.51,0004.47,0003.49
2021-09-21 11:58:00,,0839.6,5.01,0.00,28.1,27.2,00.0,37.3,29.9,20.5,0000.0,0011.28,0004.51,0003.51
2021-09-21 11:59:00,,0839.7,5.01,0.00,28.1,27.2,00.0,37.3,29.9,20.4,0000.0,0010.50,0004.47,0003.50
